EW1343 Weather Reports


Display with metric or nautical units.
time (UTC)temp
F
wind
direction
speed
MPH
gust
MPH
rain 1hr
in
rain 24hr
in
rain mn
in
humidity
%
barometer
mb
20260507130002 0 228 0.0 10.0 0.00 0.00 0.00 1017.7
20260507124558 0 255 1.0 9.0 0.00 0.00 0.00 1017.7
20260507123054 0 225 5.0 10.0 0.00 0.00 0.00 1017.7
20260507121559 0 267 2.0 12.0 0.00 0.00 0.00 1017.7
20260507120046 0 227 3.0 10.0 0.00 0.00 0.00 1017.6
20260507114548 0 278 1.0 12.0 0.00 0.00 0.00 1017.6
20260507113037 0 253 0.0 5.0 0.00 0.00 0.00 1017.7
20260507111531 0 246 1.0 8.0 0.00 0.00 0.00 1017.6
20260507110027 0 239 2.0 7.0 0.00 0.00 0.00 1017.7
20260507104523 0 360 0.0 5.0 0.00 0.00 0.00 1017.7
20260507103018 0 250 1.0 8.0 0.00 0.00 0.00 1017.7
20260507101514 0 263 0.0 5.0 0.00 0.00 0.00 1017.6
20260507100010 0 360 1.0 7.0 0.00 0.00 0.00 1017.6
20260507094504 0 264 0.0 5.0 0.00 0.00 0.00 1017.6
20260507093001 0 327 0.0 3.0 0.00 0.00 0.00 1017.6
20260507091559 0 360 1.0 4.0 0.00 0.00 0.00 1017.6
20260507090056 0 231 1.0 6.0 0.00 0.00 0.00 1017.5
20260507084547 0 250 0.0 6.0 0.00 0.00 0.00 1017.6
20260507083044 0 292 0.0 5.0 0.00 0.00 0.00 1017.4
20260507081547 0 249 0.0 5.0 0.00 0.00 0.00 1017.5
20260507080036 0 238 2.0 7.0 0.00 0.00 0.00 1017.3
20260507074549 0 173 0.0 4.0 0.00 0.00 0.00 1017.3
20260507073027 0 49 0.0 6.0 0.00 0.00 0.00 1017.3
20260507071521 0 150 0.0 6.0 0.00 0.00 0.00 1017.4
20260507070021 0 172 0.0 4.0 0.00 0.00 0.00 1017.3
20260507064512 0 360 1.0 4.0 0.00 0.00 0.00 1017.3
20260507063016 0 360 0.0 0.0 0.00 0.00 0.00 1017.3
20260507061504 0 360 0.0 0.0 0.00 0.00 0.00 1017.1
20260507054637 0 186 0.0 0.0 0.00 0.00 0.00 1017.2
20260507053053 0 186 0.0 0.0 0.00 0.00 0.00 1017.1
20260507051546 0 186 0.0 0.0 0.00 0.00 0.00 1017.0
20260507050042 0 186 0.0 0.0 0.00 0.00 0.00 1016.9
20260507044544 0 186 0.0 0.0 0.00 0.00 0.00 1016.8
20260507043033 0 186 0.0 0.0 0.00 0.00 0.00 1016.8
20260507041528 0 186 0.0 0.0 0.00 0.00 0.00 1016.7
20260507040023 0 186 0.0 0.0 0.00 0.00 0.00 1016.7
20260507034519 0 186 0.0 0.0 0.00 0.00 0.00 1016.5
20260507033020 0 186 0.0 0.0 0.00 0.00 0.00 1016.5
20260507031511 0 186 0.0 0.0 0.00 0.00 0.00 1016.5
20260507030006 0 186 0.0 0.0 0.00 0.00 0.00 1016.5
20260507024501 0 186 0.0 0.0 0.00 0.00 0.00 1016.4
20260507023105 0 186 0.0 0.0 0.00 0.00 0.00 1016.3
20260507021552 0 186 0.0 0.0 0.00 0.00 0.00 1016.2
20260507020049 0 186 0.0 0.0 0.00 0.00 0.00 1016.3
20260507014551 0 186 0.0 0.0 0.00 0.00 0.00 1016.2
20260507013039 0 186 0.0 0.0 0.00 0.00 0.00 1016.1
20260507011535 0 186 0.0 0.0 0.00 0.00 0.00 1016.1
20260507010033 0 186 0.0 0.0 0.00 0.00 0.00 1016.1
20260507004525 0 186 0.0 0.0 0.00 0.00 0.00 1016.3
20260507003022 0 186 0.0 0.0 0.00 0.00 0.00 1016.1
20260507001524 0 229 0.0 3.0 0.00 0.00 0.00 1016.0
20260507000016 0 184 0.0 0.0 0.00 0.00 0.00 1016.0
20260506234509 0 179 0.0 0.0 0.00 0.00 0.00 1016.0
20260506233004 0 217 0.0 0.0 0.00 0.00 0.00 1016.0
20260506231559 0 217 0.0 1.0 0.00 0.00 0.00 1016.0
20260506230056 0 217 0.0 1.0 0.00 0.00 0.00 1016.0
20260506224551 0 227 0.0 0.0 0.00 0.00 0.00 1015.9
20260506223047 0 227 0.0 0.0 0.00 0.00 0.00 1015.9
20260506221541 0 184 0.0 0.0 0.00 0.00 0.00 1015.8
20260506220037 0 184 0.0 0.0 0.00 0.00 0.00 1015.7
20260506214533 0 184 0.0 0.0 0.00 0.00 0.00 1015.7
20260506213030 0 205 0.0 2.0 0.00 0.00 0.00 1015.7
20260506211524 0 202 0.0 2.0 0.00 0.00 0.00 1015.6
20260506210020 0 200 0.0 4.0 0.00 0.00 0.00 1015.6
20260506204520 0 237 1.0 4.0 0.00 0.00 0.00 1015.6
20260506203011 0 226 1.0 3.0 0.00 0.00 0.00 1015.6
20260506201506 0 213 1.0 5.0 0.00 0.00 0.00 1015.6
20260506200003 0 223 1.0 6.0 0.00 0.00 0.00 1015.6
20260506194628 0 234 1.0 8.0 0.00 0.00 0.00 1015.5
20260506193103 0 239 0.0 11.0 0.00 0.00 0.00 1015.5
20260506191548 0 232 1.0 6.0 0.00 0.00 0.00 1015.3
20260506190044 0 236 0.0 6.0 0.00 0.00 0.00 1015.3
20260506184540 0 278 0.0 8.0 0.00 0.00 0.00 1015.1
20260506183036 0 242 1.0 5.0 0.00 0.00 0.00 1015.2
20260506181531 0 217 2.0 10.0 0.00 0.00 0.00 1015.2
20260506180027 0 215 2.0 9.0 0.00 0.00 0.00 1015.1
20260506174522 0 159 2.0 11.0 0.00 0.00 0.00 1015.0
20260506173016 0 246 3.0 7.0 0.00 0.00 0.00 1014.9
20260506171513 0 227 2.0 7.0 0.00 0.00 0.00 1015.0
20260506170008 0 171 1.0 7.0 0.00 0.00 0.00 1014.9
20260506164505 0 226 2.0 8.0 0.00 0.00 0.00 1014.9
20260506163121 0 212 2.0 11.0 0.00 0.00 0.00 1014.9
20260506161602 0 229 0.0 9.0 0.00 0.00 0.00 1014.8
20260506160051 0 227 1.0 8.0 0.00 0.00 0.00 1014.8
20260506154606 0 220 3.0 9.0 0.00 0.00 0.00 1014.8
20260506153050 0 202 3.0 11.0 0.00 0.00 0.00 1014.8
20260506151538 0 244 5.0 12.0 0.00 0.00 0.00 1014.8
20260506150034 0 228 1.0 10.0 0.00 0.00 0.00 1014.9
20260506144529 0 254 3.0 9.0 0.00 0.00 0.00 1015.0
20260506143030 0 292 4.0 12.0 0.00 0.00 0.00 1015.0
20260506141520 0 228 4.0 8.0 0.00 0.00 0.00 1015.0
20260506140016 0 290 3.0 10.0 0.00 0.00 0.00 1015.0
20260506134511 0 238 1.0 9.0 0.00 0.00 0.00 1015.1
20260506133008 0 236 4.0 10.0 0.00 0.00 0.00 1015.1
20260506131502 0 243 0.0 11.0 0.00 0.00 0.00 1015.2